Location: Unspecified
(35.7250°N, 0.0000°E)
Time: 13:57:33
(UTC+00:00)

Vanguard 1 Rocket - Pass Details

Date: 23 June 2019
Orbit: 652 x 4224 km, 34.3° (Epoch: 16 August)

Event Time Altitude Azimuth Distance (km) Brightness Sun altitude
Rises 21:15:52 0° 280° (W) 5,556 12.2 -19.0°
Reaches altitude 10° 21:20:21 10° 278° (W) 3,982 11.3 -19.5°
Maximum altitude 21:29:19 57° 202° (SSW) 1,219 7.8 -20.7°
Enters shadow 21:31:17 39° 147° (SSE) 1,356 7.7 -20.9°
Drops below altitude 10° 21:34:30 10° 124° (SE) 2,338 - -21.3°
Sets 21:36:30 0° 119° (ESE) 3,115 - -21.5°
